Regional Weather Roundup
Issued by NWS

Home | Current Version | Previous Version | Text Only | Print | Product List | Glossary Off
Versions: 1 2 3 4 5 6 7 8 9 10 11 12 13 14 15 16 17 18 19 20 21 22 23 24 25 26 27

000
ASUS45 KBOU 211110
RWRCO

WEATHER ROUNDUP FOR COLORADO
NATIONAL WEATHER SERVICE DENVER/BOULDER CO
400 AM MST TUE NOV 21 2017

NOTE: "FAIR" INDICATES FEW OR NO CLOUDS BELOW 12000 FEET WITH NO
SIGNIFICANT WEATHER AND/OR OBSTRUCTIONS TO VISIBILITY.

COZ001>005-013-030-031-211200-
...NORTHWEST COLORADO...

CITY           SKY/WX    TMP DP  RH WIND       PRES   REMARKS
CRAIG          CLOUDY    36  29  75 E9        30.19S
HAYDEN         CLOUDY    33  30  88 E13       30.21S WCI  24
MEEKER         LGT RAIN  39  29  67 CALM      30.23R
RABBIT EARS PA SNOW      27  25  93 W12G22    30.21S VSB 1/2 WCI  16
STEAMBOAT SPGS CLOUDY    32  32  99 E5        30.20F WCI  27
WALDEN         CLOUDY    32  25  74 S8        30.15F WCI  25
$$

COZ006>008-011-211200-
...WEST CENTRAL VALLEYS...

CITY           SKY/WX    TMP DP  RH WIND       PRES   REMARKS
GRAND JUNCTION FAIR      35  21  56 CALM      30.27F
MONTROSE       CLOUDY    33  26  75 SE3       30.30S
EAGLE          CLOUDY    39  21  48 W12       30.26R
RIFLE          CLOUDY    33  27  78 CALM      30.30R
DELTA          FAIR      33  22  63 CALM      30.30S
NUCLA          FAIR      32  12  43 CALM      30.32R
$$

COZ017>023-064>068-211200-
...SOUTHWEST COLORADO...

CITY           SKY/WX    TMP DP  RH WIND       PRES   REMARKS
DURANGO        FAIR      23  14  68 E6        30.19R WCI  16
CORTEZ         FAIR      28  12  51 E8        30.24R WCI  20
PAGOSA SPRINGS FAIR      25  16  69 CALM      30.21R
TELLURIDE      CLOUDY    35  12  38 CALM      30.35R
WOLF CREEK PAS FAIR      30  19  64 NW12G18   30.35R WCI  21
$$

COZ009-010-012-014-032>034-037-058>063-211200-
...CENTRAL COLORADO...

CITY           SKY/WX    TMP DP  RH WIND       PRES   REMARKS
ASPEN          FLURRIES  32  24  72 S7        30.28R WCI  26
BUENA VISTA    CLOUDY    37  24  60 NW21G28   30.21R
COPPER MTN     LGT SNOW  25  21  86 MISG      30.26F
BERTHOUD PASS  SNOW      21  10  63 NW39G56   30.17R VSB 1/2 WCI   1
COTTONWOOD PAS CLOUDY    34  25  69 N20G35    30.19S WCI  22
GUNNISON       MOCLDY    25  22  88 CALM      30.28R
KREMMLING      LGT SNOW  36  32  87 W15       30.20F
LEADVILLE      LGT SNOW  25  21  85 NW10      30.25R VSB 1   WCI  15
MONARCH PASS   FAIR      23   9  54 W29       30.39R WCI   6
SALIDA         FAIR      45  14  28 N9G17     30.26R
SUNLIGHT       SNOW      23  23 100 SW10G24   30.33S VSB 1/2 WCI  12
WILKERSON PASS FAIR      27  21  80 NW16G28   30.23R WCI  14
$$

COZ069>075-211200-
...SAN LUIS VALLEY/SANGRE DE CRISTO MOUNTAINS...

CITY           SKY/WX    TMP DP  RH WIND       PRES   REMARKS
ALAMOSA        FAIR      22  13  68 VRB6      30.18R WCI  14
DEL NORTE      FAIR      31  12  44 SW7       30.19S WCI  25
LA VETA PASS   FAIR      32  10  40 SW18G25     N/A  WCI  20
SAGUACHE       FAIR      43  18  36 NW23G32   30.19R
$$

COZ035-036-038>040-211200-
...NORTHERN COLORADO FRONT RANGE...

CITY           SKY/WX    TMP DP  RH WIND       PRES   REMARKS
DENVER INTL AP MOCLDY    50  21  32 W10       30.01R
DMNS CITY PARK   N/A     53  24  31 N7G20     30.03R
AURORA         MOCLDY    49  23  36 NW8       30.03R
FRONT RANGE AP FAIR      46  23  40 NW9       30.02S
ERIE MUNI ARPT FAIR      49  24  37 W12       30.06R
BOULDER MUN AP FAIR      50  27  40 CALM      30.00R
CENTENNIAL     MOCLDY    49  24  37 NW9       30.03R
BROOMFIELD     FAIR      50  25  37 N5        30.03R
FORT COLLINS   CLOUDY    50  27  40 NE9       30.01R
LONGMONT       FAIR      52  28  38 N7        30.02R
$$

COZ041-046-047-076>085-087-088-211200-
...PIKES PEAK/PALMER DIVIDE AND SOUTHERN FOOTHILLS...

CITY           SKY/WX    TMP DP  RH WIND       PRES   REMARKS
COLO. SPRINGS  MOCLDY    47  14  26 CALM      30.05R
A. F. ACADEMY  FAIR      49  19  30 W14G21    30.05R
SCHRIEVER AFB  MOCLDY    51  16  25 NW9       30.05R
CHEYENNE MTN   CLOUDY    48  17  29 W5        30.01R
ELLICOTT         N/A    N/A N/A N/A CALM      30.03R
FALCON         FAIR      47  19  34 NW12      30.07R
FORT CARSON    FAIR      41  20  41 E3        30.03R
LIMON          CLOUDY    46  20  35 N8        30.01R
MONUMENT HILL  FAIR      39  23  52 W6        30.08R
CANON CITY     FAIR      54  25  32 NW21G36   30.01R
WALSENBURG     NOT AVBL
TRINIDAD       FAIR      46  15  28 W3        30.01R
$$

COZ042>045-048>051-090-091-211200-
...NORTHEAST COLORADO...

CITY           SKY/WX    TMP DP  RH WIND       PRES   REMARKS
GREELEY ARPT   MOCLDY    51  28  41 W14       30.00R
AKRON          FAIR      50  27  40 NW18      29.99R
BURLINGTON     CLOUDY    53  23  31 NW8       29.96R
WRAY           NOT AVBL
YUMA           FAIR      46  27  46 NW9       29.97R
STERLING       FAIR      45  32  61 NW13      29.96R
HOLYOKE        FAIR      52  28  40 NW16G22   29.96R
FORT MORGAN    FAIR      51  26  38 NW21G29   30.01R
$$

COZ086-089-092>099-211200-
...SOUTHEAST COLORADO...

CITY           SKY/WX    TMP DP  RH WIND       PRES   REMARKS
PUEBLO         FAIR      40  23  50 S6        29.99R
LA JUNTA       FAIR      41  18  39 W7        29.97R
LAMAR          FAIR      32  16  51 SW7       29.94R WCI  26
SPRINGFIELD      N/A     37  18  46 NW9       29.95R
$$




USA.gov is the U.S. government's official web portal to all federal, state and local government web resources and services.